Regional Weather Roundup
Issued by NWS

Home | Current Version | Previous Version | Text Only | Print | Product List | Glossary On
Versions: 1 2 3 4 5 6 7 8 9 10 11 12 13 14 15 16 17 18 19 20 21 22 23 24 25 26 27 28 29 30 31 32 33 34 35 36 37 38 39 40 41 42 43 44 45 46 47 48 49 50
641
ASUS43 KTOP 260908
RWRKS

WEATHER ROUNDUP FOR KANSAS
NATIONAL WEATHER SERVICE GOODLAND KS
400 AM CDT WED APR 26 2017

NOTE:  "FAIR" INDICATES FEW OR NO CLOUDS BELOW 12,000 FEET WITH NO
SIGNIFICANT WEATHER AND/OR OBSTRUCTIONS TO VISIBILITY.

KSZ001>006-013>018-027>032-041>047-261000-
NORTHWEST KANSAS

CITY           SKY/WX    TMP DP  RH WIND       PRES   REMARKS
GOODLAND       CLOUDY    35  28  75 N22G30    29.76S WCI  23
HILL CITY      CLOUDY    39  30  70 N17       29.76R WCI  30
RUSSELL        CLOUDY    39  33  79 N22G28    29.70R WCI  29
$$

KSZ061>065-074>080-084>089-261000-
SOUTHWEST KANSAS

CITY           SKY/WX    TMP DP  RH WIND       PRES   REMARKS
DODGE CITY     LGT RAIN  40  36  86 N21G29    29.70R WCI  30
ELKHART          N/A     42  36  79 N18         N/A
GARDEN CITY    CLOUDY    40  34  79 N23G31    29.72R WCI  30
GREAT BEND     CLOUDY    40  35  83 N21       29.70  WCI  30
PRATT          CLOUDY    39  34  83 N20G29    29.67R WCI  29
$$

KSZ066>073-081>083-090>101-261000-
SOUTHEAST KANSAS

CITY           SKY/WX    TMP DP  RH WIND       PRES   REMARKS
CHANUTE        CLOUDY    50  46  86 N12       29.53S
COFFEYVILLE    CLOUDY    52  49  89 N8        29.54R
HUTCHINSON     CLOUDY    43  37  79 N22       29.62F
MEDICINE LODGE   N/A     43  38  82 N13       29.65R
NEWTON         CLOUDY    42  38  85 N15G25    29.61R
PARSONS        CLOUDY    51  48  89 N13       29.52F
WICHITA INTL   CLOUDY    45  40  82 N23       29.61R
WICHITA JABRA  CLOUDY    44  40  85 N17       29.60R
WICHITA MCCONL CLOUDY    45  39  79 N17G24    29.58F
WINFIELD       CLOUDY    47  41  80 N17       29.60R
$$

KSZ007>012-019>026-033>040-048>060-102>105-261000-
NORTHEAST KANSAS

CITY           SKY/WX    TMP DP  RH WIND       PRES   REMARKS
CONCORDIA      CLOUDY    40  34  79 N22G29    29.67S WCI  30
EMPORIA        CLOUDY    44  41  89 N13G23    29.56F
LAWRENCE       CLOUDY    46  44  93 NW16G28   29.54R
MANHATTAN      CLOUDY    43  35  73 NW9G22    29.63R
MARYSVILLE     CLOUDY    37  34  87 NW20G25   29.63R WCI  27
OLATHE IND     CLOUDY    46  44  93 NW18G26   29.53R
OLATHE EXE     CLOUDY    46  46 100 N13       29.51R
SALINA         CLOUDY    44  36  73 NW21      29.67R
TOPEKA BILLARD CLOUDY    45  43  93 NW13      29.57R
TOPEKA FORBES  CLOUDY    46  41  82 NW20G29   29.55S
$$




USA.gov is the U.S. government's official web portal to all federal, state and local government web resources and services.